Theta_e
337 338 338 339 341 339 336 337 339 338 337 336 337 336 337 339 340 338 335 335 335 336
334 334 333 339 340 339 337 337 337 339 340 339 338 338 339 337 336 336 335 335 336 336
333 331 331 335 339 337 335 335 337 339 339 335 335 336 336 335 333 332 332 334 335 335
334 332 332 336 339 338 335 334 336 338 335 332 330 330 330 330 329 328 328 331 332 335
333 336 336 336 335 334 333 336 336 334 332 332 330 328 328 326 325 324 324 325 328 330
330 334 334 333 335 334 333 331 331 330 330 330 330 329 327 323 321 321 322 322 323 326
330 333 333 333 333 332 331 330 329 329 327 323 323 327 328 325 321 320 320 320 322 324
336 333 333 333 333 332 331 330 329 327 321 320 323 326 327 326 323 320 319 320 322 324
337 334 333 334 334 333 331 330 326 320 320 319 323 320 325 326 324 322 320 320 318 320
336 333 333 335 334 332 331 332 328 321 319 317 318 317 319 325 321 318 318 319 315 316
334 333 333 333 333 332 333 333 329 326 322 316 317 314 314 322 321 317 317 317 313 311
335 333 332 331 331 332 331 331 330 328 324 318 314 311 312 321 320 315 312 314 313 309
337 334 331 330 330 331 331 331 330 327 325 319 316 310 309 314 320 314 309 305 307 313
338 335 333 331 331 332 330 329 327 328 327 322 318 312 308 310 321 317 310 305 303 303
Wind_Speed
5 3 2 3 4 3 3 3 6 5 4 5 3 2 2 1 1 2 2 3 2 2
6 5 1 5 6 3 3 1 5 5 4 4 4 4 4 4 4 4 3 4 4 2
7 4 3 4 6 6 3 4 5 5 5 5 4 5 5 4 4 5 4 4 5 4
6 5 6 3 5 5 4 3 6 5 5 5 4 5 5 5 6 6 6 6 6 7
6 4 4 5 4 6 5 5 6 6 6 5 4 5 6 6 5 6 7 6 7 6
6 5 6 5 5 5 6 6 6 6 6 5 5 6 6 6 6 6 6 6 6 5
6 7 7 7 7 6 5 6 5 6 6 6 6 5 5 6 6 6 6 6 6 6
6 6 5 4 5 8 6 5 5 7 6 6 5 3 6 6 6 6 6 6 6 7
6 6 6 6 3 2 5 6 7 6 6 6 4 4 7 6 6 6 6 5 5 6
6 7 6 5 6 5 5 5 7 6 6 6 5 6 7 9 5 6 4 5 5 5
8 7 6 7 7 4 3 4 7 5 3 6 4 6 8 9 7 6 5 5 5 6
8 7 6 7 7 4 3 3 4 6 7 6 4 7 8 7 5 5 5 5 5 5
9 9 8 7 6 4 4 4 4 5 5 6 7 7 10 6 4 5 4 3 3 5
8 9 8 6 5 5 5 5 5 5 5 6 6 6 8 9 5 5 4 4 3 2
Wind_Direction
68 73 121 132 105 80 94 146 121 129 130 97 77 62 51 47 43 110 8 357 305 240
105 114 187 119 108 108 101 192 106 121 111 119 77 53 37 61 49 59 16 5 359 19
144 140 81 30 93 107 151 86 96 90 86 59 57 51 52 50 25 50 21 5 18 20
133 168 123 120 129 118 95 120 96 110 94 77 55 46 58 50 37 45 22 17 24 30
126 143 127 126 122 113 101 77 101 107 112 105 82 64 67 58 44 48 36 18 28 27
134 127 129 132 116 104 103 111 106 105 106 123 106 89 80 79 66 60 51 35 39 30
155 145 150 147 140 133 135 130 122 108 111 98 93 106 120 94 76 67 56 46 45 41
173 160 155 147 161 152 155 157 132 125 107 101 82 84 132 119 102 88 66 46 48 54
150 162 169 165 217 182 163 148 129 125 120 106 79 58 117 121 124 119 111 92 63 50
153 162 177 168 153 168 193 155 143 136 133 124 99 56 76 113 106 106 111 111 89 71
153 168 167 149 158 180 149 107 142 134 154 135 132 91 75 117 118 105 97 109 112 108
162 169 174 172 170 176 160 155 145 155 166 155 159 125 101 120 118 112 105 106 117 124
175 178 188 180 176 169 172 173 162 170 193 173 162 167 127 128 140 132 130 107 103 123
183 188 186 174 171 178 177 162 178 186 195 182 177 180 160 151 163 166 164 169 168 181